Regional Weather Roundup
Issued by NWS

Home | Current Version | Previous Version | Text Only | Print | Product List | Glossary On
Versions: 1 2 3 4 5 6 7 8 9 10 11 12 13 14 15 16 17 18 19 20 21 22 23 24 25 26 27 28
000
ASUS42 KTBW 271916
RWRFL
FLORIDA REGIONAL WEATHER ROUNDUP
NATIONAL WEATHER SERVICE TAMPA BAY RUSKIN FL
300 PM EDT FRI MAY 27 2022

NOTE: "FAIR" INDICATES FEW OR NO CLOUDS BELOW 12,000 FEET WITH NO
SIGNIFICANT WEATHER AND/OR OBSTRUCTIONS TO VISIBILITY.

FLZ001>010-012>015-112-114-115-272000-
PANHANDLE FLORIDA

CITY           SKY/WX    TMP DP  RH WIND       PRES   REMARKS
PENSACOLA      PTSUNNY   88  65  46 W15       29.91F
PENSACOLA NAS  MOSUNNY   86  63  45 W9G23     29.91F
CRESTVIEW      MOSUNNY   88  63  43 W12       29.92F
DUKE FIELD     PTSUNNY   85  61  44 SW13      29.91F
VALPARAISO     MOSUNNY   84  66  54 W16       29.91F
MARY ESTHER    MOSUNNY   83  67  59 W16       29.92F
PANAMA CITY    FAIR      85  64  49 SW14      29.93S
TYNDALL AFB    MOSUNNY   81  71  71 SW10      29.95F

STATION/POSITION SKY/WX   TEMP    WIND        PRES    WAVE   SWELL
                          AIR SEA DIR/SP/G            HT/PER HT/PER
                          (F)     (DEG/KT/KT) (MB)    (FT/S) (FT/S)
30.1N   87.6W              80     260/ 16/ 19   N/A     4/ 7
29.2N   88.2W              80 80  270/ 12/ 14 1015.3F   3/ 7   2/ 7
28.8N   86.0W              79 80  300/  8/ 10 1015.8F   3/ 7   3/ 7
PANAMA CITY BEAC           78 79  250/ 10/ 11 1015.0F
TOWER C                    78     280/ 12/ 14 1014.6F
28.5N   84.5W              79 79  220/ 10/ 14 1013.6F   4/ 5   2/ 6

$$
FLZ011-016>038-118-127-128-134-139-239-272000-
NORTH FLORIDA

CITY           SKY/WX    TMP DP  RH WIND       PRES   REMARKS
MARIANNA         N/A    N/A N/A N/A MISG      29.92F
TALLAHASSEE    PTSUNNY   88  60  38 W9        29.92F
LIVE OAK       MOSUNNY   84  72  65 VRB6G14   29.92F
CROSS CITY     PTSUNNY   77  73  88 SW7       29.95F
LAKE CITY      CLOUDY    82  70  65 SW13G18   29.93F
GAINESVILLE    CLOUDY    75  72  90 SW9       29.98F
WILLISTON      PTSUNNY   75  72  90 W8G17     29.97F THUNDER
PALATKA        FAIR      72  70  94 CALM      29.97F
MAYPORT NAS    TSTM      73  72  94 SW14G28   29.97R VSB 1
JACKSONVILLE   LGT RAIN  76  73  91 CALM      29.93F
JAX NAS        LGT RAIN  77  74  90 S6        29.95F
JAX CECIL      MOSUNNY   79  77  94 SW8       29.94F
FERNANDINA BEA PTSUNNY   78  73  82 W7        29.95F
ST AUGUSTINE   CLOUDY    79  75  87 SW6       29.97S
PALM COAST     MOSUNNY   79  68  69 SW9       29.97S

STATION/POSITION SKY/WX   TEMP    WIND        PRES    WAVE   SWELL
                          AIR SEA DIR/SP/G            HT/PER HT/PER
                          (F)     (DEG/KT/KT) (MB)    (FT/S) (FT/S)
SHELL POINT      NOT AVBL
KEATON BEACH               78     220/ 12/ 13 1013.9F
CEDAR KEY                  76     270/  7/  9 1014.7F
FERNANDINA                 81 81  210/  3/  5 1014.5F
30.7N   81.3W              78 79                N/A     4/ 6
MAYPORT                    80 81  290/  9/ 13 1014.4F
31.4N   80.9W              75 78  200/ 14/ 16 1013.6F   4/ 6   2/14
ST AUGUSTINE               75 79  230/  8/ 10 1014.3F

$$
FLZ040-043>046-052-053-057-058-063-144-272000-
INTERIOR CENTRAL FLORIDA

CITY           SKY/WX    TMP DP  RH WIND       PRES   REMARKS
OCALA          PTSUNNY   85  72  65 SW14      29.95F
LEESBURG       PTSUNNY   82  73  74 SE13      29.97F
SANFORD        CLOUDY    87  66  49 SW8       29.95F
ORLANDO EXEC   PTSUNNY   91  65  41 S10       29.95F
ORLANDO INTL   PTSUNNY   90  64  42 S13       29.95F
KISSIMMEE      PTSUNNY   90  65  43 SW10G20   29.97F
WINTER HAVEN   PTSUNNY   84  69  60 W10G20    29.98F
LAKELAND INTL  PTSUNNY   73  73 100 W9        29.98F
BARTOW         PTSUNNY   88  66  48 SW14      29.98F
SEBRING          N/A    N/A N/A N/A MISG        N/A
OKEECHOBEE     MOSUNNY   91  73  55 S14G20    29.96F HX 100

$$
FLZ041-047-054-059-064-141-147-272000-
EAST CENTRAL FLORIDA

CITY           SKY/WX    TMP DP  RH WIND       PRES   REMARKS
ORMOND BEACH   PTSUNNY   84  72  65 W8G21     29.96F
DAYTONA BEACH  CLOUDY    84  73  69 SW6       29.95F
DELAND         TSTM      73  70  89 NW12G20   29.98R
NEW SMYRNA BEA PTSUNNY   86  70  58 SW8       29.94
JFK SPACE CTR  PTSUNNY   88  72  58 S14       29.94F HX  95
TITUSVILLE     MOSUNNY   91  72  52 S9        29.96F HX  98
CAPE CANAVERAL PTSUNNY   86  73  64 S22       29.94F
PATRICK AFB    PTSUNNY   85  71  63 SE17      29.94F
MELBOURNE      PTSUNNY   88  72  58 SE14      29.95F
VERO BEACH     PTSUNNY   87  73  62 SE18G25   29.98F
FT PIERCE      MOSUNNY   89  73  59 SE18      29.98F HX  97
STUART         PTSUNNY   88  72  58 SE15      29.99F

STATION/POSITION SKY/WX   TEMP    WIND        PRES    WAVE   SWELL
                          AIR SEA DIR/SP/G            HT/PER HT/PER
                          (F)     (DEG/KT/KT) (MB)    (FT/S) (FT/S)
28.5N   80.2W              79 79  160/ 17/ 19   N/A     3/ 6   2/10
28.9N   78.5W              80 80  190/ 14/ 16 1017.1F   4/ 5   2/ 9
TRIDENT PIER               83 85  160/ 13/ 17 1013.9F
28.4N   80.5W                 78                N/A     3/ 5
27.6N   80.2W                 76                N/A     3/ 4

$$
FLZ050-056-061-142-242-148-248-149-249-151-251-155-255-
160-260-272000-
WEST CENTRAL FLORIDA

CITY           SKY/WX    TMP DP  RH WIND       PRES   REMARKS
CRYSTAL RIVER  PTSUNNY   82  72  69 SW9G18    29.96F
INVERNESS      PTSUNNY   84  72  65 SW8G16    29.96F HAZE
BROOKSVILLE    PTSUNNY   87  70  56 SW17      29.96F
CLEARWATER AIR PTSUNNY   81  70  69 SW12G20   29.98F
ST PETE CLEARW CLOUDY    85  75  72 SW18      29.98F
TAMPA INTL     CLOUDY    87  71  58 SW16      29.98F
TAMPA EXEC       N/A     88  72  58 SW12G22   29.99F
MACDILL AFB    CLOUDY    87  72  61 SW18      29.95F
PETER O KNIGHT CLOUDY   N/A N/A N/A SW15G21   29.99F
ST PETERSBURG  CLOUDY    84  72  67 SW16G24   29.97F
SARASOTA       CLOUDY    85  73  67 SW16G23   29.98F
VENICE         FAIR      86  73  66 SW15      30.00F

STATION/POSITION SKY/WX   TEMP    WIND        PRES    WAVE   SWELL
                          AIR SEA DIR/SP/G            HT/PER HT/PER
                          (F)     (DEG/KT/KT) (MB)    (FT/S) (FT/S)
27.3N   84.3W                 78                N/A     3/ 5
CLEARWATER BEACH           81 85  220/ 18/ 19 1015.7F
MIDDLE TAMPA BAY           81     250/ 14/ 17 1015.3F
VENICE                     82 86  210/ 13/ 15 1015.5F

$$
FLZ066-069-070-075>078-162-262-165-265-272000-
SOUTHWEST FLORIDA AND KEYS

CITY           SKY/WX    TMP DP  RH WIND       PRES   REMARKS
PUNTA GORDA    PTSUNNY   87  72  60 SW17G24   30.00F
FT MYERS       PTSUNNY   88  70  55 SW16      29.98F
SOUTHWEST INTL MOSUNNY   87  72  60 W13G22    29.98F
NAPLES         MOSUNNY   88  72  58 S14       29.99F
MARCO ISLAND   CLOUDY    87  71  58 S12G17    30.01F
IMMOKALEE      FAIR      95  64  36 SW9       29.97F HX  97
MARATHON       SUNNY     89  73  59 S7        30.00F HX  97
KEY WEST NAS   MOSUNNY   91  74  57 S9        30.00F HX 100
KEY WEST INTL  SUNNY     85  73  67 SE8       30.00F

STATION/POSITION SKY/WX   TEMP    WIND        PRES    WAVE   SWELL
                          AIR SEA DIR/SP/G            HT/PER HT/PER
                          (F)     (DEG/KT/KT) (MB)    (FT/S) (FT/S)
NAPLES                     87 85  190/ 10/ 12 1015.1F
DRY TORTUGAS     NOT AVBL
SAND KEY                   81     150/  7/  8 1016.3F
SOMBRERO KEY                      170/  6/  8 1015.3F
LONG KEY                   82                 1015.9F

$$
FLZ067-068-071>074-168-172>174-272000-
SOUTHEAST FLORIDA

CITY           SKY/WX    TMP DP  RH WIND       PRES   REMARKS
W PALM BEACH   MOSUNNY   88  70  55 SE16      30.00F
BOCA RATON     MOSUNNY   84  72  65 S14G21    30.01F
FT LAUDER-EXEC PTSUNNY   89  70  53 SE15      29.99F
FT LAUDERDALE  PTSUNNY   88  72  58 SE18      29.99F
POMPANO BEACH  MOSUNNY   88  74  63 SE17G23   30.00F HX  96
PEMBROKE PINES MOSUNNY   89  67  47 S9G20     30.01F
OPA LOCKA      MOSUNNY   89  69  51 SE13      30.01S
MIAMI          MOSUNNY   89  71  55 SE8G20    30.00F HX  95
WEST KENDALL   PTSUNNY   90  69  50 S8        29.99F
HOMESTEAD      MOSUNNY   88  69  53 SE9       29.98F

STATION/POSITION SKY/WX   TEMP    WIND        PRES    WAVE   SWELL
                          AIR SEA DIR/SP/G            HT/PER HT/PER
                          (F)     (DEG/KT/KT) (MB)    (FT/S) (FT/S)
VIRGINIA KEY               82 85  140/ 11/ 13 1016.8F
LAKE WORTH                 81 83  180/ 18/ 19 1015.7F
FOWEY ROCKS                81 82  160/ 13/ 13 1016.7F
SETTLEMENT POINT           83     160/ 12/ 14 1016.7F

$$




USA.gov is the U.S. government's official web portal to all federal, state and local government web resources and services.